This is the latest recevied weather packets stored in our database for station/object KM4KMS. If no packets are shown the sender has not sent any weather packets the latest 1 day(s).
| Time | Temp. | Humidity | Pressure | Rain* | Wind** | Luminosity | Snow |
|---|---|---|---|---|---|---|---|
| 1778048276 | 14.44° C | 99% | 1004.9 hPa | 3.05 mm | 0 m/s | 0 W/m² | - |
| 1778047973 | 14.44° C | 99% | 1005.1 hPa | 3.05 mm | 0.45 m/s, 341° | 0 W/m² | - |
| 1778047671 | 14.44° C | 99% | 1005 hPa | 1.78 mm | 0.45 m/s, 340° | 0 W/m² | - |
| 1778047369 | 14.44° C | 99% | 1005.3 hPa | 1.78 mm | 0.89 m/s, 209° | 0 W/m² | - |
| 1778047065 | 14.44° C | 99% | 1005.1 hPa | 3.05 mm | 0.45 m/s, 259° | 0 W/m² | - |
| 1778046762 | 14.44° C | 99% | 1005.3 hPa | 7.87 mm | 0.89 m/s, 249° | 0 W/m² | - |
| 1778046459 | 14.44° C | 99% | 1005.2 hPa | 6.1 mm | 0.45 m/s, 284° | 0 W/m² | - |
| 1778046156 | 14.44° C | 99% | 1005.3 hPa | 7.87 mm | 0.45 m/s, 260° | 0 W/m² | - |
| 1778045853 | 14.44° C | 99% | 1005.5 hPa | 12.7 mm | 0 m/s | 0 W/m² | - |
| 1778045552 | 14.44° C | 99% | 1005.5 hPa | 15.49 mm | 0.45 m/s, 320° | 0 W/m² | - |
| 1778045249 | 14.44° C | 99% | 1005.6 hPa | 13.21 mm | 0.45 m/s, 302° | 0 W/m² | - |
| 1778044947 | 14.44° C | 99% | 1005.2 hPa | 3.05 mm | 0.45 m/s, 350° | 0 W/m² | - |
| 1778044644 | 14.44° C | 99% | 1005.3 hPa | 3.56 mm | 0.45 m/s, 345° | 0 W/m² | - |
| 1778044340 | 14.44° C | 99% | 1005.4 hPa | 8.89 mm | 0.89 m/s, 329° | 0 W/m² | - |
| 1778044039 | 14.44° C | 99% | 1005.6 hPa | 13.72 mm | 1.79 m/s, 276° | 0 W/m² | - |
| 1778043735 | 14.44° C | 99% | 1006 hPa | 10.67 mm | 1.34 m/s, 342° | 0 W/m² | - |
| 1778043432 | 14.44° C | 99% | 1006 hPa | 3.56 mm | 2.68 m/s, 339° | 0 W/m² | - |
| 1778043129 | 14.44° C | 99% | 1005.6 hPa | 0 mm | 1.79 m/s, 335° | 0 W/m² | - |
| 1778042827 | 14.44° C | 99% | 1005.1 hPa | 0 mm | 1.34 m/s, 341° | 0 W/m² | - |
| 1778042523 | 14.44° C | 99% | 1005.2 hPa | 0 mm | 0.45 m/s, 325° | 0 W/m² | - |
| 1778042221 | 14.44° C | 99% | 1005.1 hPa | 1.27 mm | 0.45 m/s, 316° | 0 W/m² | - |
| 1778041918 | 14.44° C | 99% | 1005.2 hPa | 1.27 mm | 0.45 m/s, 327° | 0 W/m² | - |
| 1778041618 | 14.44° C | 99% | 1005.1 hPa | 1.78 mm | 0.45 m/s, 233° | 0 W/m² | - |
| 1778041315 | 14.44° C | 99% | 1005.1 hPa | 3.05 mm | 1.34 m/s, 199° | 0 W/m² | - |
| 1778041013 | 14.44° C | 99% | 1005 hPa | 3.05 mm | 0.89 m/s, 149° | 0 W/m² | - |
* Rain latest hour (hover to see other rain measurements)
** Current wind speed in m/s (hover to see current wind gust speed)